EW8865 Weather Reports


time (UTC)temp
C
wind
direction
speed
KPH
gust
KPH
rain 1hr
cm
rain 24hr
cm
rain mn
cm
humidity
%
barometer
mb
20260905175005 18 265 8.0 12.9 0.00 0.00 0.00 62 1024.1
20260905174504 18 275 6.4 14.5 0.00 0.00 0.00 60 1024.1
20260905174004 18 275 9.7 14.5 0.00 0.00 0.00 59 1024.1
20260905173504 19 275 6.4 12.9 0.00 0.00 0.00 59 1024.1
20260905172503 20 276 8.0 14.5 0.00 0.00 0.00 57 1024.0
20260905172003 20 286 6.4 14.5 0.00 0.00 0.00 56 1024.0
20260905171504 20 239 9.7 16.1 0.00 0.00 0.00 56 1024.1
20260905171004 20 258 9.7 19.3 0.00 0.00 0.00 56 1024.1
20260905170504 20 271 6.4 14.5 0.00 0.00 0.00 57 1024.0
20260905170004 20 210 6.4 14.5 0.00 0.00 0.00 57 1023.9
20260905165504 20 260 8.0 16.1 0.00 0.00 0.00 56 1023.9
20260905164503 20 250 12.9 19.3 0.00 0.00 0.00 55 1024.0
20260905163504 20 243 11.3 19.3 0.00 0.00 0.00 55 1024.0
20260905163004 20 217 8.0 14.5 0.00 0.00 0.00 56 1024.0
20260905162504 20 232 6.4 12.9 0.00 0.00 0.00 56 1023.9
20260905162004 20 254 9.7 16.1 0.00 0.00 0.00 56 1023.9
20260905161503 20 212 8.0 16.1 0.00 0.00 0.00 55 1023.9
20260905161003 20 256 6.4 16.1 0.00 0.00 0.00 56 1024.0
20260905160505 20 240 4.8 14.5 0.00 0.00 0.00 56 1024.0
20260905160003 20 243 9.7 16.1 0.00 0.00 0.00 55 1024.0
20260905155504 20 250 8.0 14.5 0.00 0.00 0.00 55 1024.0
20260905154503 20 233 9.7 19.3 0.00 0.00 0.00 55 1024.1
20260905154004 21 223 9.7 19.3 0.00 0.00 0.00 54 1024.0
20260905153504 21 254 12.9 19.3 0.00 0.00 0.00 56 1024.0
20260905153003 21 291 9.7 14.5 0.00 0.00 0.00 57 1024.0
20260905152503 21 265 8.0 14.5 0.00 0.00 0.00 57 1023.9
20260905152004 21 249 4.8 12.9 0.00 0.00 0.00 56 1024.0
20260905151504 21 256 11.3 19.3 0.00 0.00 0.00 56 1024.1
20260905150503 21 282 14.5 20.9 0.00 0.00 0.00 56 1024.3
20260905150004 21 260 14.5 20.9 0.00 0.00 0.00 56 1024.3
20260905145503 21 246 11.3 19.3 0.00 0.00 0.00 57 1024.4
20260905144504 20 235 11.3 22.5 0.00 0.00 0.00 56 1024.3
20260905143504 20 238 9.7 20.9 0.00 0.00 0.00 58 1024.3
20260905143004 20 267 9.7 19.3 0.00 0.00 0.00 57 1024.4
20260905142504 20 290 11.3 24.1 0.00 0.00 0.00 57 1024.5
20260905141503 20 233 11.3 22.5 0.00 0.00 0.00 56 1024.5
20260905141004 20 249 12.9 19.3 0.00 0.00 0.00 59 1024.5
20260905140503 20 276 9.7 19.3 0.00 0.00 0.00 59 1024.6
20260905140004 20 293 8.0 19.3 0.00 0.00 0.00 59 1024.5
20260905135503 20 226 6.4 16.1 0.00 0.00 0.00 57 1024.5
20260905135004 20 256 9.7 20.9 0.00 0.00 0.00 57 1024.5
20260905134504 20 241 8.0 14.5 0.00 0.00 0.00 58 1024.5
20260905134003 20 266 11.3 20.9 0.00 0.00 0.00 57 1024.5
20260905133003 20 274 11.3 22.5 0.00 0.00 0.00 58 1024.5
20260905132004 21 277 14.5 22.5 0.00 0.00 0.00 58 1024.5
20260905131503 20 274 14.5 29.0 0.00 0.00 0.00 56 1024.4
20260905131003 21 251 16.1 22.5 0.00 0.00 0.00 55 1024.4
20260905130504 21 204 9.7 19.3 0.00 0.00 0.00 55 1024.4
20260905130004 21 280 11.3 22.5 0.00 0.00 0.00 56 1024.3
20260905125504 21 254 11.3 19.3 0.00 0.00 0.00 55 1024.3
20260905125003 21 249 12.9 22.5 0.00 0.00 0.00 57 1024.2
20260905124503 20 297 8.0 16.1 0.00 0.00 0.00 60 1024.2
20260905124003 20 184 9.7 19.3 0.00 0.00 0.00 58 1024.1
20260905123504 20 203 12.9 19.3 0.00 0.00 0.00 56 1024.1
20260905123003 20 228 14.5 20.9 0.00 0.00 0.00 56 1024.2
20260905122004 20 256 11.3 19.3 0.00 0.00 0.00 56 1024.2
20260905121504 20 212 8.0 19.3 0.00 0.00 0.00 59 1024.1
20260905121004 20 202 9.7 22.5 0.00 0.00 0.00 58 1024.2
20260905120003 20 280 8.0 19.3 0.00 0.00 0.00 60 1024.0
20260905115503 19 237 9.7 19.3 0.00 0.00 0.00 61 1024.0
20260905115004 18 281 6.4 12.9 0.00 0.00 0.00 62 1023.9
20260905114004 19 280 9.7 16.1 0.00 0.00 0.00 59 1024.0
20260905113004 20 283 11.3 20.9 0.00 0.00 0.00 57 1024.1
20260905112504 20 301 11.3 19.3 0.00 0.00 0.00 58 1024.1
20260905112004 20 277 12.9 19.3 0.00 0.00 0.00 58 1024.1
20260905111504 20 235 9.7 20.9 0.00 0.00 0.00 58 1024.2
20260905111004 20 265 8.0 19.3 0.00 0.00 0.00 59 1024.2
20260905110504 19 257 8.0 12.9 0.00 0.00 0.00 61 1024.2
20260905110004 18 261 9.7 19.3 0.00 0.00 0.00 59 1024.3
20260905105503 19 310 6.4 16.1 0.00 0.00 0.00 59 1024.2
20260905105003 19 292 11.3 19.3 0.00 0.00 0.00 58 1024.3
20260905104003 19 224 6.4 14.5 0.00 0.00 0.00 57 1024.2
20260905103504 19 251 9.7 16.1 0.00 0.00 0.00 59 1024.3
20260905103004 19 230 4.8 19.3 0.00 0.00 0.00 60 1024.3
20260905102503 18 278 9.7 19.3 0.00 0.00 0.00 62 1024.3
20260905102004 18 274 8.0 14.5 0.00 0.00 0.00 63 1024.3
20260905101504 18 254 6.4 16.1 0.00 0.00 0.00 65 1024.3
20260905101004 17 209 6.4 11.3 0.00 0.00 0.00 64 1024.2
20260905100504 18 279 6.4 14.5 0.00 0.00 0.00 64 1024.3
20260905095504 18 352 6.4 9.7 0.00 0.00 0.00 64 1024.2
20260905095004 18 355 4.8 9.7 0.00 0.00 0.00 66 1024.2
20260905094504 18 345 4.8 11.3 0.00 0.00 0.00 64 1024.1
20260905094003 18 348 4.8 11.3 0.00 0.00 0.00 66 1024.0
20260905093503 18 288 4.8 9.7 0.00 0.00 0.00 66 1024.0
20260905093003 18 306 8.0 12.9 0.00 0.00 0.00 65 1023.9
20260905092504 18 270 12.9 19.3 0.00 0.00 0.00 65 1023.8
20260905092004 18 272 9.7 22.5 0.00 0.00 0.00 64 1023.8
20260905091503 17 268 11.3 19.3 0.00 0.00 0.00 66 1023.8
20260905091003 17 278 11.3 19.3 0.00 0.00 0.00 67 1023.7
20260905090504 17 301 3.2 12.9 0.00 0.00 0.00 70 1023.8
20260905090004 17 276 4.8 14.5 0.00 0.00 0.00 68 1023.7
20260905085503 17 283 4.8 16.1 0.00 0.00 0.00 69 1023.6
20260905084504 16 297 4.8 12.9 0.00 0.00 0.00 71 1023.5
20260905084004 16 298 8.0 20.9 0.00 0.00 0.00 71 1023.6
20260905083504 17 291 14.5 22.5 0.00 0.00 0.00 70 1023.5
20260905083003 16 251 8.0 12.9 0.00 0.00 0.00 72 1023.5
20260905082503 16 282 8.0 12.9 0.00 0.00 0.00 73 1023.5
20260905082004 16 340 6.4 16.1 0.00 0.00 0.00 74 1023.3
20260905081503 16 261 9.7 19.3 0.00 0.00 0.00 75 1023.4
20260905080504 15 291 4.8 11.3 0.00 0.00 0.00 76 1023.3
20260905080004 15 244 4.8 9.7 0.00 0.00 0.00 78 1023.3
20260905075004 14 232 0.0 0.0 0.00 0.00 0.00 81 1023.1
20260905073504 12 250 1.6 3.2 0.00 0.00 0.00 88 1023.1
20260905073003 12 261 1.6 3.2 0.00 0.00 0.00 90 1023.1
20260905072503 12 261 0.0 0.0 0.00 0.00 0.00 91 1023.1
20260905071004 11 261 0.0 0.0 0.00 0.00 0.00 91 1023.0
20260905070503 10 261 0.0 3.2 0.00 0.00 0.00 91 1022.9
20260905070004 10 261 0.0 0.0 0.00 0.00 0.00 91 1022.9
20260905065504 10 261 0.0 0.0 0.00 0.00 0.00 90 1022.8
20260905065004 10 261 0.0 0.0 0.00 0.03 0.00 90 1022.8
20260905064504 10 261 0.0 0.0 0.00 0.03 0.00 90 1022.8
20260905064004 10 261 0.0 0.0 0.00 0.03 0.00 90 1022.6
20260905063503 10 261 0.0 0.0 0.00 0.05 0.00 89 1022.6
20260905063004 10 261 0.0 0.0 0.00 0.05 0.00 89 1022.6
20260905062504 10 261 0.0 3.2 0.00 0.05 0.00 89 1022.6
20260905062004 10 261 0.0 3.2 0.00 0.05 0.00 89 1022.5
20260905060003 10 261 0.0 0.0 0.00 0.08 0.00 87 1022.1
20260905055003 10 261 1.6 3.2 0.00 0.08 0.00 86 1022.0
20260905054503 10 261 0.0 0.0 0.00 0.08 0.00 86 1022.0
20260905054003 10 261 0.0 0.0 0.00 0.08 0.00 86 1021.9
20260905053503 11 261 0.0 1.6 0.00 0.08 0.00 86 1021.7
20260905053004 11 261 1.6 4.8 0.00 0.10 0.00 86 1021.6
20260905052504 11 261 1.6 4.8 0.00 0.10 0.00 86 1021.6
20260905052004 11 263 3.2 4.8 0.00 0.10 0.00 86 1021.6
20260905051503 11 284 0.0 0.0 0.00 0.10 0.00 85 1021.5
20260905051004 11 284 0.0 0.0 0.00 0.10 0.00 84 1021.5
20260905050504 11 285 0.0 0.0 0.00 0.10 0.00 84 1021.3
20260905050003 11 285 0.0 3.2 0.00 0.10 0.00 84 1021.3
20260905045503 12 285 1.6 4.8 0.00 0.13 0.00 84 1021.2
20260905044504 12 275 4.8 12.9 0.00 0.13 0.00 84 1021.2
20260905043503 12 281 8.0 16.1 0.00 0.13 0.00 83 1021.1
20260905042504 12 288 11.3 19.3 0.00 0.13 0.00 83 1020.9
20260905042004 12 285 9.7 16.1 0.00 0.15 0.00 82 1020.9
20260905041004 12 299 9.7 16.1 0.00 0.18 0.00 82 1020.9
20260905040504 12 295 9.7 19.3 0.00 0.20 0.00 82 1020.9
20260905040004 12 301 9.7 16.1 0.00 0.20 0.00 82 1020.9
20260905034504 12 303 11.3 19.3 0.00 0.23 0.00 82 1020.8
20260905034003 12 307 8.0 19.3 0.00 0.25 0.00 82 1020.7
20260905033504 12 292 8.0 16.1 0.00 0.25 0.00 81 1020.7
20260905033003 12 277 4.8 19.3 0.00 0.28 0.00 81 1020.6
20260905032504 12 280 9.7 19.3 0.00 0.28 0.00 81 1020.5
20260905031004 12 298 11.3 20.9 0.00 0.30 0.00 81 1020.5
20260905030004 12 300 11.3 19.3 0.00 0.33 0.00 82 1020.4
20260905025503 12 288 9.7 16.1 0.00 0.33 0.00 82 1020.3
20260905025003 12 283 11.3 16.1 0.00 0.33 0.00 82 1020.3
20260905024504 12 297 9.7 20.9 0.00 0.36 0.00 82 1020.4
20260905024004 12 290 8.0 19.3 0.00 0.36 0.00 82 1020.3
20260905023503 12 287 9.7 19.3 0.00 0.36 0.00 83 1020.3
20260905023004 12 291 8.0 16.1 0.00 0.38 0.00 83 1020.3
20260905022503 12 264 3.2 11.3 0.00 0.38 0.00 83 1020.3
20260905022003 13 257 4.8 16.1 0.00 0.41 0.00 83 1020.2
20260905021503 13 280 9.7 19.3 0.00 0.41 0.00 83 1020.1
20260905021004 13 277 12.9 22.5 0.00 0.41 0.00 83 1020.0
20260905020504 13 275 9.7 22.5 0.00 0.41 0.00 83 1020.0
20260905020003 13 289 14.5 19.3 0.00 0.41 0.00 83 1020.0
20260905015503 13 289 16.1 22.5 0.00 0.41 0.00 83 1020.0
20260905015004 13 283 14.5 25.7 0.00 0.41 0.00 84 1019.8
20260905014503 13 286 12.9 20.9 0.00 0.41 0.00 84 1019.8
20260905014003 12 301 12.9 20.9 0.00 0.41 0.00 85 1019.9
20260905013503 12 289 8.0 19.3 0.00 0.41 0.00 86 1019.8
20260905012503 12 273 11.3 19.3 0.00 0.41 0.00 86 1019.7
20260905011503 12 269 14.5 20.9 0.00 0.41 0.00 87 1019.7
20260905011003 12 288 11.3 19.3 0.00 0.41 0.00 88 1019.6
20260905010503 12 286 9.7 19.3 0.00 0.41 0.00 89 1019.6
20260905010003 12 287 11.3 19.3 0.00 0.41 0.00 89 1019.6
20260905005504 12 277 8.0 16.1 0.00 0.41 0.00 89 1019.7
20260905005003 12 280 8.0 14.5 0.00 0.41 0.00 89 1019.6
20260905004004 12 254 6.4 11.3 0.00 0.41 0.00 88 1019.7
20260905003504 12 253 4.8 11.3 0.00 0.41 0.00 88 1019.6
20260905003003 12 241 4.8 9.7 0.00 0.41 0.00 88 1019.7
20260905002504 12 257 8.0 11.3 0.00 0.41 0.00 88 1019.7
20260905002004 12 254 4.8 11.3 0.00 0.41 0.00 88 1019.6
20260905001503 12 256 4.8 12.9 0.00 0.41 0.00 87 1019.6
20260905001003 12 261 1.6 4.8 0.00 0.41 0.00 87 1019.6
20260905000503 12 269 3.2 4.8 0.00 0.41 0.00 88 1019.6
20260905000003 12 267 3.2 14.5 0.00 0.41 0.00 88 1019.5
20260904234504 12 280 8.0 12.9 0.00 0.43 0.00 88 1019.3
20260904233003 12 284 4.8 4.8 0.00 0.43 0.00 87 1019.3
20260904232503 12 266 3.2 4.8 0.00 0.43 0.00 87 1019.2
20260904232003 12 265 3.2 9.7 0.00 0.43 0.00 87 1019.3
20260904231504 12 263 4.8 9.7 0.00 0.46 0.00 87 1019.3
20260904231004 12 244 3.2 11.3 0.00 0.46 0.00 87 1019.2
20260904230504 12 258 4.8 9.7 0.00 0.51 0.00 86 1019.1
20260904230003 12 269 6.4 11.3 0.00 0.51 0.00 86 1019.1
20260904225504 12 253 4.8 11.3 0.00 0.51 0.51 86 1019.1
20260904223503 13 246 4.8 8.0 0.00 0.51 0.51 85 1019.1
20260904223003 13 253 3.2 4.8 0.00 0.51 0.51 85 1019.0
20260904222503 13 247 4.8 12.9 0.00 0.51 0.51 85 1019.0
20260904222004 13 247 4.8 8.0 0.00 0.51 0.51 85 1018.9
20260904221504 13 273 4.8 12.9 0.00 0.51 0.51 85 1018.9
20260904220503 13 253 4.8 11.3 0.00 0.51 0.51 85 1018.9
20260904220003 13 250 4.8 11.3 0.00 0.51 0.51 85 1019.0
20260904215504 13 241 4.8 11.3 0.00 0.51 0.51 85 1019.0
20260904215003 13 253 8.0 12.9 0.00 0.53 0.51 85 1018.8
20260904214004 13 265 8.0 12.9 0.00 0.53 0.51 86 1018.7
20260904213504 13 266 8.0 12.9 0.00 0.53 0.51 86 1018.6
20260904213003 13 269 9.7 16.1 0.00 0.53 0.51 86 1018.5
20260904212504 13 251 9.7 14.5 0.00 0.53 0.51 87 1018.5
20260904212004 13 266 9.7 14.5 0.00 0.53 0.51 87 1018.5
20260904211003 13 269 6.4 12.9 0.00 0.53 0.51 87 1018.4
20260904210503 13 265 4.8 9.7 0.00 0.53 0.51 87 1018.4
20260904210004 13 260 8.0 14.5 0.00 0.56 0.51 87 1018.4
20260904205503 13 241 6.4 12.9 0.00 0.56 0.51 87 1018.4
20260904205004 13 249 6.4 11.3 0.00 0.61 0.51 87 1018.3
20260904204504 13 246 4.8 8.0 0.00 0.61 0.51 87 1018.2
20260904203504 13 265 4.8 11.3 0.00 0.61 0.51 86 1018.2
20260904203004 13 265 8.0 11.3 0.00 0.61 0.51 86 1018.2
20260904202503 13 262 4.8 11.3 0.00 0.61 0.51 85 1018.2
20260904201503 13 262 4.8 9.7 0.00 0.61 0.51 84 1018.2
20260904201003 13 260 6.4 9.7 0.00 0.61 0.51 84 1018.2
20260904200504 13 269 4.8 11.3 0.00 0.61 0.51 83 1018.2
20260904200004 14 264 4.8 4.8 0.00 0.61 0.51 83 1018.1
20260904195503 14 259 3.2 8.0 0.00 0.61 0.51 82 1018.1
20260904195004 14 253 4.8 9.7 0.00 0.61 0.51 82 1018.0
20260904194503 14 270 6.4 11.3 0.00 0.61 0.51 82 1018.0
20260904193504 15 252 4.8 12.9 0.00 0.61 0.51 81 1017.8
20260904193004 15 260 8.0 16.1 0.00 0.61 0.51 81 1017.8
20260904192504 15 261 9.7 14.5 0.00 0.61 0.51 81 1017.8
20260904192003 15 279 8.0 16.1 0.00 0.61 0.51 80 1017.8
20260904191504 15 273 11.3 19.3 0.00 0.61 0.51 80 1017.8
20260904191004 15 269 11.3 19.3 0.00 0.61 0.51 80 1017.7
20260904190504 15 288 11.3 19.3 0.00 0.61 0.51 79 1017.6
20260904190004 15 282 9.7 16.1 0.00 0.61 0.51 79 1017.6
20260904185503 15 270 9.7 22.5 0.00 0.61 0.51 79 1017.5
20260904185003 15 272 9.7 20.9 0.00 0.61 0.51 78 1017.5
20260904184504 15 270 14.5 19.3 0.00 0.61 0.51 78 1017.6
20260904184004 16 267 14.5 20.9 0.00 0.61 0.51 78 1017.5
20260904183003 16 259 11.3 19.3 0.00 0.61 0.51 77 1017.5
20260904182503 16 280 8.0 16.1 0.00 0.61 0.51 77 1017.5
20260904182003 16 287 9.7 20.9 0.00 0.61 0.51 77 1017.5
20260904181004 16 267 11.3 19.3 0.00 0.61 0.51 76 1017.3
20260904180004 16 262 12.9 27.4 0.00 0.61 0.51 75 1017.1
20260904175503 16 291 9.7 24.1 0.00 0.61 0.51 75 1017.1